Find Starlink 33663

NORAD ID: 63652 Int'l Des: 2025-083 Owner: SPXS Country: US Constellation: starlink operational
LEOCIRCULAR

現在のビュー

3D地球を読み込み中...

About Starlink 33663

Starlink 33663 (NORAD 63652) is a starlink constellation satellite (v2 mini) launched Apr 25, 2025 by SPXS of US. It operates in LEO, CIRCULAR orbit with a mass of 575.00 kg.

Starlink 33663について

説明を読み込み中...

次回通過

Passes for default location (London). Set your location on the main map for personalized predictions.

高度履歴

Loading altitude history...

軌道要素

1 63652U 25083U 26170.39506370 .00016550 00000-0 60926-3 0 9992
2 63652 43.0049 150.6254 0001503 261.9100 98.1581 15.27597735 65627
Epoch: Jun 19, 2026 • Age: 20 hours

現在のステータス

高度 482.2 km
速度 7.63 km/s
衛星直下点 11.84°N, 30.63°W
打ち上げ日 Apr 25, 2025
運用期間 1.1 years
タイプ internet

技術仕様

分類 Payload
質量 575.00 kg
乾燥質量 530.00 kg
総質量 575.00 kg
長さ 0.30 m
直径 4.10 m
スパン 29.00 m
形状 Box + pan
製造者 SPXS
バスタイプ Starlink V2MO
フェーズステータス In Orbit
所有者/国 SPXS/US

Most Searched